CSC6537 ZLDH-ZLXN

Flight info

Callsign CSC6537
Flight time 1h 7m
Altitude 35100
Route VIKUP W191 NODID
Aircraft A320/M-SDE3FGHIRWY/LB1

Departure

Time 2026-05-06 11:04
Airport Dunhuang Mogao International Airport (ZLDH)

Arrival

Time 2026-05-06 12:11
Airport Xining Caojiabao International Airport (ZLXN)
Time Latitude Longitude Altitude Speed Heading
2026-05-06 10:28 40.16500 94.80605 3698 ft 0 kts 354°
2026-05-06 10:55 40.16499 94.80605 3698 ft 1 kts 354°
2026-05-06 10:55 40.16483 94.80607 3699 ft 3 kts 354°
2026-05-06 10:55 40.16463 94.80610 3695 ft 3 kts 354°
2026-05-06 10:55 40.16443 94.80612 3697 ft 3 kts 354°
2026-05-06 10:56 40.16423 94.80615 3700 ft 3 kts
2026-05-06 10:56 40.16406 94.80611 3701 ft 3 kts 40°
2026-05-06 10:56 40.16396 94.80592 3698 ft 3 kts 79°
2026-05-06 10:56 40.16394 94.80576 3701 ft 0 kts 84°
2026-05-06 10:59 40.16394 94.80577 3700 ft 1 kts 84°
2026-05-06 10:59 40.16397 94.80606 3699 ft 5 kts 84°
2026-05-06 10:59 40.16391 94.80651 3695 ft 5 kts 126°
2026-05-06 11:00 40.16339 94.80664 3695 ft 10 kts 174°
2026-05-06 11:00 40.16255 94.80675 3696 ft 14 kts 174°
2026-05-06 11:00 40.16175 94.80685 3700 ft 8 kts 180°
2026-05-06 11:00 40.16148 94.80639 3701 ft 8 kts 258°
2026-05-06 11:01 40.16138 94.80539 3700 ft 15 kts 263°
2026-05-06 11:01 40.16125 94.80373 3706 ft 22 kts 264°
2026-05-06 11:01 40.16108 94.80145 3694 ft 25 kts 264°
2026-05-06 11:01 40.16092 94.79917 3694 ft 25 kts 264°
2026-05-06 11:02 40.16072 94.79694 3694 ft 24 kts 264°
2026-05-06 11:02 40.16060 94.79532 3694 ft 10 kts 267°
2026-05-06 11:02 40.16076 94.79459 3694 ft 7 kts 293°
2026-05-06 11:02 40.16093 94.79407 3695 ft 7 kts 293°
2026-05-06 11:03 40.16098 94.79326 3695 ft 8 kts 265°
2026-05-06 11:03 40.16081 94.79275 3695 ft 5 kts 208°
2026-05-06 11:03 40.16047 94.79286 3700 ft 7 kts 138°
2026-05-06 11:03 40.16043 94.79327 3695 ft 0 kts 85°
2026-05-06 11:04 40.16050 94.79420 3693 ft 38 kts 84°
2026-05-06 11:04 40.16103 94.80079 3693 ft 104 kts 84°
2026-05-06 11:04 40.16196 94.81246 3694 ft 153 kts 84°
2026-05-06 11:05 40.16291 94.82694 4161 ft 158 kts 84°
2026-05-06 11:05 40.16403 94.84126 4817 ft 158 kts 82°
2026-05-06 11:05 40.16544 94.85611 5045 ft 177 kts 81°
2026-05-06 11:05 40.16709 94.87317 5195 ft 201 kts 81°
2026-05-06 11:06 40.16888 94.89206 5509 ft 216 kts 81°
2026-05-06 11:06 40.17118 94.91175 5787 ft 220 kts 69°
2026-05-06 11:06 40.18023 94.92698 5801 ft 217 kts 28°
2026-05-06 11:06 40.19502 94.93021 5805 ft 224 kts 349°
2026-05-06 11:07 40.20847 94.92007 5809 ft 231 kts 309°
2026-05-06 11:07 40.21397 94.90061 5806 ft 234 kts 268°
2026-05-06 11:07 40.20857 94.88075 5802 ft 238 kts 227°
2026-05-06 11:07 40.19474 94.86974 5801 ft 236 kts 186°
2026-05-06 11:08 40.17909 94.87282 5891 ft 228 kts 145°
2026-05-06 11:08 40.16928 94.88807 6108 ft 220 kts 103°
2026-05-06 11:08 40.17000 94.90730 6489 ft 214 kts 61°
2026-05-06 11:08 40.18064 94.92017 7124 ft 212 kts 19°
2026-05-06 11:09 40.19523 94.92020 7715 ft 220 kts 340°
2026-05-06 11:09 40.20705 94.90698 8175 ft 236 kts 298°
2026-05-06 11:09 40.20991 94.88591 8755 ft 242 kts 259°
2026-05-06 11:09 40.20214 94.86683 9371 ft 242 kts 219°
2026-05-06 11:10 40.18719 94.85799 9976 ft 239 kts 180°
2026-05-06 11:10 40.17130 94.86287 10409 ft 239 kts 142°
2026-05-06 11:10 40.16116 94.87951 10843 ft 238 kts 103°
2026-05-06 11:10 40.16133 94.90054 11359 ft 234 kts 65°
2026-05-06 11:11 40.17144 94.91658 11822 ft 233 kts 27°
2026-05-06 11:11 40.18705 94.92065 12317 ft 232 kts 347°
2026-05-06 11:11 40.20076 94.91079 12972 ft 227 kts 308°
2026-05-06 11:11 40.20656 94.89179 13490 ft 234 kts 271°
2026-05-06 11:12 40.20232 94.87096 13570 ft 255 kts 239°
2026-05-06 11:12 40.18858 94.85463 13444 ft 284 kts 205°
2026-05-06 11:12 40.16937 94.85064 14266 ft 279 kts 174°
2026-05-06 11:12 40.15104 94.85858 14886 ft 287 kts 152°
2026-05-06 11:13 40.13376 94.87370 15017 ft 311 kts 142°
2026-05-06 11:13 40.11667 94.89274 15146 ft 334 kts 138°
2026-05-06 11:13 40.09916 94.91414 15287 ft 355 kts 137°
2026-05-06 11:13 40.08078 94.93695 15407 ft 375 kts 137°
2026-05-06 11:14 40.06125 94.96074 15563 ft 392 kts 138°
2026-05-06 11:14 40.04081 94.98488 16029 ft 398 kts 139°
2026-05-06 11:14 40.01995 95.00890 16542 ft 403 kts 140°
2026-05-06 11:14 39.99870 95.03295 17078 ft 408 kts 140°
2026-05-06 11:15 39.97710 95.05727 17685 ft 411 kts 139°
2026-05-06 11:15 39.95746 95.08454 18259 ft 415 kts 127°
2026-05-06 11:15 39.94229 95.11671 18735 ft 420 kts 117°
2026-05-06 11:15 39.92912 95.15079 19242 ft 422 kts 117°
2026-05-06 11:16 39.91594 95.18509 19754 ft 425 kts 117°
2026-05-06 11:16 39.90265 95.21971 20247 ft 429 kts 117°
2026-05-06 11:16 39.88926 95.25452 20714 ft 432 kts 117°
2026-05-06 11:16 39.87571 95.28964 21180 ft 435 kts 117°
2026-05-06 11:17 39.86207 95.32492 21616 ft 438 kts 117°
2026-05-06 11:17 39.84827 95.36049 22040 ft 443 kts 117°
2026-05-06 11:17 39.83428 95.39645 22437 ft 447 kts 118°
2026-05-06 11:17 39.82020 95.43256 22854 ft 450 kts 118°
2026-05-06 11:18 39.80601 95.46889 23281 ft 453 kts 118°
2026-05-06 11:18 39.79163 95.50559 23651 ft 457 kts 118°
2026-05-06 11:18 39.77716 95.54252 23976 ft 460 kts 118°
2026-05-06 11:18 39.76272 95.57972 24296 ft 463 kts 118°
2026-05-06 11:19 39.74845 95.61734 24574 ft 466 kts 117°
2026-05-06 11:19 39.73421 95.65534 24850 ft 469 kts 117°
2026-05-06 11:19 39.71992 95.69359 25132 ft 472 kts 117°
2026-05-06 11:19 39.70571 95.73153 25433 ft 475 kts 118°
2026-05-06 11:20 39.69115 95.77014 25712 ft 478 kts 118°
2026-05-06 11:20 39.67639 95.80894 25983 ft 480 kts 118°
2026-05-06 11:20 39.66152 95.84785 26251 ft 483 kts 118°
2026-05-06 11:20 39.64654 95.88702 26513 ft 485 kts 118°
2026-05-06 11:21 39.63148 95.92635 26781 ft 488 kts 118°
2026-05-06 11:21 39.61637 95.96583 27050 ft 490 kts 118°
2026-05-06 11:21 39.60116 96.00559 27318 ft 493 kts 118°
2026-05-06 11:21 39.58586 96.04559 27564 ft 496 kts 118°
2026-05-06 11:22 39.57053 96.08561 27791 ft 498 kts 119°
2026-05-06 11:22 39.55502 96.12593 28031 ft 501 kts 119°
2026-05-06 11:22 39.53941 96.16597 28243 ft 503 kts 119°
2026-05-06 11:22 39.52332 96.20669 28472 ft 505 kts 120°
2026-05-06 11:23 39.50718 96.24726 28693 ft 508 kts 120°
2026-05-06 11:23 39.49102 96.28786 28953 ft 509 kts 120°
2026-05-06 11:23 39.47478 96.32868 29281 ft 509 kts 120°
2026-05-06 11:23 39.46408 96.35561 29488 ft 509 kts 120°
2026-05-06 11:24 39.44243 96.41019 29873 ft 510 kts 120°
2026-05-06 11:24 39.43172 96.43717 30072 ft 510 kts 120°
2026-05-06 11:24 39.41002 96.49179 30446 ft 511 kts 120°
2026-05-06 11:24 39.39925 96.51888 30629 ft 511 kts 121°
2026-05-06 11:25 39.38303 96.55959 30935 ft 509 kts 120°
2026-05-06 11:25 39.36684 96.60020 31239 ft 508 kts 121°
2026-05-06 11:25 39.35063 96.64078 31524 ft 507 kts 121°
2026-05-06 11:25 39.33446 96.68121 31793 ft 507 kts 121°
2026-05-06 11:26 39.31824 96.72165 32069 ft 506 kts 121°
2026-05-06 11:26 39.30199 96.76195 32343 ft 506 kts 121°
2026-05-06 11:26 39.28573 96.80219 32623 ft 506 kts 122°
2026-05-06 11:26 39.26949 96.84245 32896 ft 505 kts 122°
2026-05-06 11:27 39.25337 96.88269 33112 ft 506 kts 121°
2026-05-06 11:27 39.23217 96.93625 33441 ft 506 kts 121°
2026-05-06 11:27 39.22141 96.96360 33566 ft 506 kts 121°
2026-05-06 11:27 39.20552 97.00398 33743 ft 506 kts 121°
2026-05-06 11:28 39.18959 97.04445 34013 ft 506 kts 122°
2026-05-06 11:28 39.17362 97.08492 34310 ft 506 kts 122°
2026-05-06 11:28 39.15760 97.12531 34550 ft 506 kts 122°
2026-05-06 11:28 39.14157 97.16557 34786 ft 505 kts 122°
2026-05-06 11:29 39.12550 97.20583 35004 ft 505 kts 123°
2026-05-06 11:29 39.10944 97.24596 35232 ft 504 kts 123°
2026-05-06 11:29 39.09333 97.28613 35307 ft 505 kts 123°
2026-05-06 11:30 39.06110 97.36636 35322 ft 506 kts 122°
2026-05-06 11:30 39.02878 97.44689 35324 ft 507 kts 123°
2026-05-06 11:31 38.99648 97.52726 35325 ft 507 kts 122°
2026-05-06 11:31 38.96423 97.60722 35316 ft 507 kts 123°
2026-05-06 11:32 38.93166 97.68752 35306 ft 507 kts 123°
2026-05-06 11:32 38.89885 97.76746 35306 ft 507 kts 123°
2026-05-06 11:33 38.86562 97.84726 35306 ft 507 kts 123°
2026-05-06 11:33 38.83237 97.92713 35288 ft 507 kts 123°
2026-05-06 11:34 38.79917 98.00698 35298 ft 508 kts 123°
2026-05-06 11:34 38.76584 98.08687 35293 ft 509 kts 123°
2026-05-06 11:35 38.73239 98.16676 35289 ft 509 kts 123°
2026-05-06 11:35 38.69890 98.24665 35294 ft 509 kts 124°
2026-05-06 11:36 38.66539 98.32642 35288 ft 509 kts 123°
2026-05-06 11:36 38.63196 98.40578 35285 ft 510 kts 124°
2026-05-06 11:37 38.59818 98.48567 35280 ft 511 kts 124°
2026-05-06 11:37 38.56432 98.56568 35297 ft 512 kts 124°
2026-05-06 11:38 38.53035 98.64578 35317 ft 512 kts 124°
2026-05-06 11:38 38.49637 98.72573 35312 ft 513 kts 124°
2026-05-06 11:39 38.46214 98.80569 35321 ft 513 kts 124°
2026-05-06 11:39 38.42785 98.88558 35322 ft 513 kts 124°
2026-05-06 11:40 38.39353 98.96551 35338 ft 514 kts 124°
2026-05-06 11:40 38.35923 99.04537 35337 ft 514 kts 124°
2026-05-06 11:41 38.32486 99.12526 35347 ft 514 kts 124°
2026-05-06 11:41 38.29058 99.20462 35321 ft 514 kts 125°
2026-05-06 11:42 38.25598 99.28432 35344 ft 514 kts 125°
2026-05-06 11:42 38.22130 99.36413 35354 ft 519 kts 125°
2026-05-06 11:43 38.18604 99.44500 35356 ft 525 kts 125°
2026-05-06 11:43 38.15073 99.52675 35349 ft 530 kts 124°
2026-05-06 11:44 38.09886 99.65115 35352 ft 531 kts 123°
2026-05-06 11:44 38.06413 99.73392 35349 ft 531 kts 124°
2026-05-06 11:45 38.02904 99.81641 35348 ft 531 kts 124°
2026-05-06 11:45 37.99381 99.89886 35329 ft 532 kts 124°
2026-05-06 11:46 37.95872 99.98100 35329 ft 534 kts 124°
2026-05-06 11:46 37.92337 100.06378 35328 ft 534 kts 124°
2026-05-06 11:47 37.88799 100.14647 35334 ft 535 kts 124°
2026-05-06 11:47 37.85237 100.22919 35329 ft 535 kts 124°
2026-05-06 11:48 37.81667 100.31195 35324 ft 536 kts 124°
2026-05-06 11:48 37.78093 100.39474 35327 ft 536 kts 124°
2026-05-06 11:49 37.74507 100.47741 35337 ft 537 kts 124°
2026-05-06 11:49 37.70916 100.56014 35311 ft 537 kts 124°
2026-05-06 11:50 37.67329 100.64270 35328 ft 536 kts 124°
2026-05-06 11:50 37.63748 100.72519 35357 ft 536 kts 124°
2026-05-06 11:51 37.60255 100.80835 35361 ft 536 kts 123°
2026-05-06 11:51 37.56792 100.89161 35351 ft 536 kts 123°
2026-05-06 11:52 37.53300 100.97462 35343 ft 535 kts 124°
2026-05-06 11:52 37.49784 101.05728 35359 ft 535 kts 124°
2026-05-06 11:53 37.46265 101.13989 35352 ft 535 kts 124°
2026-05-06 11:53 37.42739 101.22244 35353 ft 535 kts 124°
2026-05-06 11:54 37.39223 101.30493 35339 ft 535 kts 123°
2026-05-06 11:54 37.35699 101.38741 35345 ft 535 kts 123°
2026-05-06 11:55 37.32045 101.46856 35324 ft 524 kts 131°
2026-05-06 11:55 37.29887 101.50415 35122 ft 513 kts 138°
2026-05-06 11:55 37.27408 101.53559 34886 ft 501 kts 148°
2026-05-06 11:56 37.24594 101.56030 34647 ft 486 kts 160°
2026-05-06 11:56 37.21625 101.58040 34412 ft 485 kts 161°
2026-05-06 11:56 37.18631 101.60005 34172 ft 486 kts 161°
2026-05-06 11:56 37.15625 101.61952 33903 ft 486 kts 161°
2026-05-06 11:57 37.12618 101.63896 33623 ft 487 kts 161°
2026-05-06 11:57 37.09609 101.65853 33366 ft 487 kts 161°
2026-05-06 11:57 37.06605 101.67825 33089 ft 488 kts 160°
2026-05-06 11:57 37.03607 101.69808 32822 ft 488 kts 160°
2026-05-06 11:58 37.00606 101.71799 32572 ft 489 kts 160°
2026-05-06 11:58 36.97614 101.73782 32322 ft 487 kts 160°
2026-05-06 11:58 36.94658 101.75746 32074 ft 475 kts 159°
2026-05-06 11:58 36.91771 101.77666 31813 ft 463 kts 159°
2026-05-06 11:59 36.88953 101.79530 31566 ft 453 kts 160°
2026-05-06 11:59 36.86194 101.81346 31296 ft 443 kts 160°
2026-05-06 11:59 36.83502 101.83119 31042 ft 434 kts 159°
2026-05-06 11:59 36.81009 101.85170 30807 ft 435 kts 147°
2026-05-06 12:00 36.78860 101.87744 30597 ft 435 kts 135°
2026-05-06 12:00 36.77118 101.90793 30433 ft 429 kts 124°
2026-05-06 12:00 36.75849 101.94138 29813 ft 427 kts 112°
2026-05-06 12:00 36.74899 101.97616 29163 ft 421 kts 111°
2026-05-06 12:01 36.73955 102.01080 28535 ft 412 kts 111°
2026-05-06 12:01 36.73040 102.04419 27959 ft 405 kts 111°
2026-05-06 12:01 36.72144 102.07670 27361 ft 398 kts 111°
2026-05-06 12:01 36.71247 102.10896 26787 ft 391 kts 111°
2026-05-06 12:02 36.70357 102.14084 25998 ft 391 kts 110°
2026-05-06 12:02 36.69454 102.17308 25015 ft 397 kts 110°
2026-05-06 12:02 36.68533 102.20588 24080 ft 402 kts 110°
2026-05-06 12:02 36.67609 102.23897 22977 ft 406 kts 109°
2026-05-06 12:03 36.66699 102.27235 21853 ft 409 kts 108°
2026-05-06 12:03 36.65803 102.30602 20763 ft 410 kts 108°
2026-05-06 12:03 36.64911 102.33987 19807 ft 409 kts 108°
2026-05-06 12:03 36.64037 102.37294 19195 ft 397 kts 108°
2026-05-06 12:04 36.63183 102.40516 18633 ft 384 kts 108°
2026-05-06 12:04 36.62199 102.43550 18026 ft 372 kts 122°
2026-05-06 12:04 36.60444 102.45805 17514 ft 358 kts 149°
2026-05-06 12:04 36.58160 102.46818 17000 ft 345 kts 176°
2026-05-06 12:05 36.55847 102.46442 16508 ft 331 kts 201°
2026-05-06 12:05 36.53727 102.45413 15845 ft 327 kts 202°
2026-05-06 12:05 36.51632 102.44332 15246 ft 323 kts 202°
2026-05-06 12:05 36.49602 102.43279 14721 ft 317 kts 202°
2026-05-06 12:06 36.47581 102.42241 14196 ft 311 kts 200°
2026-05-06 12:06 36.45617 102.41173 13627 ft 307 kts 209°
2026-05-06 12:06 36.44137 102.39333 13092 ft 302 kts 242°
2026-05-06 12:06 36.43642 102.36848 12544 ft 298 kts 273°
2026-05-06 12:07 36.44223 102.34392 11847 ft 298 kts 301°
2026-05-06 12:07 36.45170 102.32149 11408 ft 289 kts 292°
2026-05-06 12:07 36.45821 102.29831 11040 ft 280 kts 288°
2026-05-06 12:07 36.46419 102.27566 10685 ft 272 kts 289°
2026-05-06 12:08 36.47029 102.25374 10352 ft 264 kts 290°
2026-05-06 12:08 36.47628 102.23255 10022 ft 257 kts 290°
2026-05-06 12:08 36.48206 102.21202 9711 ft 247 kts 289°
2026-05-06 12:08 36.48756 102.19242 9342 ft 231 kts 290°
2026-05-06 12:09 36.49262 102.17434 9022 ft 214 kts 290°
2026-05-06 12:09 36.49735 102.15749 8742 ft 200 kts 290°
2026-05-06 12:09 36.50176 102.14173 8497 ft 188 kts 290°
2026-05-06 12:09 36.50591 102.12689 8249 ft 179 kts 291°
2026-05-06 12:10 36.50992 102.11251 7993 ft 174 kts 290°
2026-05-06 12:10 36.51396 102.09826 7751 ft 176 kts 292°
2026-05-06 12:10 36.51784 102.08382 7565 ft 177 kts 291°
2026-05-06 12:10 36.52191 102.06948 7362 ft 174 kts 290°
2026-05-06 12:11 36.52455 102.06016 7224 ft 171 kts 290°
2026-05-06 12:11 36.52923 102.04352 7167 ft 122 kts 289°
2026-05-06 12:11 36.53143 102.03555 7157 ft 73 kts 289°
2026-05-06 12:11 36.53265 102.03118 7159 ft 47 kts 289°
2026-05-06 12:12 36.53369 102.02743 7161 ft 45 kts 289°
2026-05-06 12:12 36.53468 102.02386 7160 ft 43 kts 289°